Location: Unspecified
(0.0000°N, 0.0000°E)
Time: 14:08:45
(UTC+00:00)

S-56A Canister/Altair - Pass Details

Date: 27 April 2019
Orbit: 633 x 2499 km, 38.9° (Epoch: 23 August)

Event Time Altitude Azimuth Distance (km) Brightness Sun altitude
Exits shadow 03:58:30 15° 188° (S) 3,262 10.5 -28.9°
Maximum altitude 04:05:18 31° 135° (SE) 2,799 10.5 -27.2°
Drops below altitude 10° 04:16:07 10° 78° (ENE) 4,793 12.6 -24.6°
Sets 04:20:57 0° 69° (ENE) 5,992 13.5 -23.5°
